Location: Biltmore Gardens
(41.6070°N, 83.4666°W)
Time: 09:27:36
(UTC+00:00)

Cosmos 2344 - Pass Details

Date: 20 October 2020
Orbit: 1246 x 2997 km, 63.3° (Epoch: 25 November)

Event Time Altitude Azimuth Distance (km) Brightness Sun altitude
Exits shadow 10:23:06 18° 236° (SW) 2,685 4.8 -17.4°
Maximum altitude 10:28:48 59° 311° (NW) 1,429 3.6 -16.3°
Drops below altitude 10° 10:36:39 10° 31° (NNE) 3,456 6.3 -14.8°
Sets 10:39:48 0° 36° (NE) 4,584 7.0 -14.2°
